OK,128,73,985,128,2014-10-01T01:40:00,0,28072755,209986
OK,128,73,985,128,2014-10-01T01:45:00,0,28073202,209986
OK,128,73,985,128,2014-10-01T01:50:00,0,28073650,209986
OK,128,73,985,128,2014-10-01T01:55:00,0,28073968,209986
OK,128,73,985,128,2014-10-01T02:00:00,0,28074417,209986
OK,128,73,985,128,2014-10-01T02:05:00,0,28074857,209986
OK,128,73,985,128,2014-10-01T02:10:00,0,28075306,209986
OK,128,73,985,128,2014-10-01T02:15:00,0,28075755,209986
OK,128,73,985,128,2014-10-01T02:20:00,0,28076138,209986
OK,128,73,985,128,2014-10-01T02:25:00,0,28076587,209986
OK,128,73,985,128,2014-10-01T02:30:00,0,28077036,209986
OK,128,73,985,128,2014-10-01T02:35:00,0,28077485,209986
OK,128,73,985,128,2014-10-01T02:40:00,0,28077888,209986
OK,128,73,985,128,2014-10-01T02:45:00,0,28078337,209986
OK,128,73,985,128,2014-10-01T02:50:00,0,28078782,209986
OK,128,73,985,128,2014-10-01T02:55:00,0,28079231,209986
OK,128,73,985,128,2014-10-01T03:00:00,0,28079673,209986
OK,128,73,985,128,2014-10-01T03:05:00,0,28080122,209986
OK,128,73,985,128,2014-10-01T03:10:00,0,28080456,209986
OK,128,73,985,128,2014-10-01T03:15:00,0,28080905,209986
OK,128,73,985,128,2014-10-01T03:20:00,0,28081354,209986
OK,128,73,985,128,2014-10-01T03:25:00,0,28081801,209986
OK,128,73,985,128,2014-10-01T03:30:00,0,28082250,209986
OK,128,73,985,128,2014-10-01T03:35:00,0,28082683,209986
OK,128,73,985,128,2014-10-01T03:40:00,0,28083115,209986
OK,128,73,985,128,2014-10-01T03:45:00,0,28083564,209986
OK,128,73,985,128,2014-10-01T03:50:00,0,28084013,209986
OK,128,73,985,128,2014-10-01T03:55:00,0,28084454,209986
OK,128,73,985,128,2014-10-01T04:00:00,0,28084879,209986
OK,128,73,985,128,2014-10-01T04:05:00,0,28085328,209986
OK,105,89,985,105,2014-10-01T04:10:00,1,28085773,209986
OK,146,64,985,146,2014-10-01T04:15:00,2,28086222,209986
OK,146,64,985,146,2014-10-01T04:20:00,1,28086664,209986
OK,146,64,985,146,2014-10-01T04:25:00,0,28087113,209986
OK,146,64,985,146,2014-10-01T04:30:00,0,28087558,209986
OK,146,64,985,146,2014-10-01T04:35:00,1,28088007,209986
OK,146,64,985,146,2014-10-01T04:40:00,0,28088431,209986
OK,153,61,985,153,2014-10-01T04:45:00,1,28088880,209986
OK,131,72,985,131,2014-10-01T04:50:00,2,28089310,209986
OK,137,68,985,137,2014-10-01T04:55:00,2,28089759,209986
OK,166,56,985,166,2014-10-01T05:00:00,1,28090208,209986
OK,136,69,985,136,2014-10-01T05:05:00,1,28090552,209986
OK,133,70,985,133,2014-10-01T05:10:00,2,28091001,209986
OK,122,77,985,122,2014-10-01T05:15:00,2,28091450,209986
OK,146,64,985,146,2014-10-01T05:20:00,2,28091867,209986
OK,146,64,985,146,2014-10-01T05:25:00,0,28092316,209986
OK,146,64,985,146,2014-10-01T05:30:00,2,28092760,209986
OK,178,53,985,178,2014-10-01T05:35:00,3,28093201,209986
OK,176,53,985,176,2014-10-01T05:40:00,2,28093632,209986
OK,140,67,985,140,2014-10-01T05:45:00,1,28094081,209986
OK,214,44,985,214,2014-10-01T05:50:00,7,28094492,209986
OK,214,44,985,214,2014-10-01T05:55:00,7,28094937,209986
OK,146,64,985,146,2014-10-01T06:00:00,5,28095384,209986
OK,144,65,985,144,2014-10-01T06:05:00,5,28095833,209986
OK,135,69,985,135,2014-10-01T06:10:00,2,28096246,209986
OK,169,55,985,169,2014-10-01T06:15:00,2,28096695,209986
OK,169,55,985,169,2014-10-01T06:20:00,2,28097129,209986
OK,145,65,985,145,2014-10-01T06:25:00,2,28097578,209986
OK,126,74,985,126,2014-10-01T06:30:00,3,28098027,209986
OK,118,80,985,118,2014-10-01T06:35:00,1,28098464,209986
OK,118,80,985,118,2014-10-01T06:40:00,0,28098908,209986
OK,136,69,985,136,2014-10-01T06:45:00,2,28099356,209986
OK,133,70,985,133,2014-10-01T06:50:00,3,28099699,209986
OK,132,71,985,132,2014-10-01T06:55:00,1,28100148,209986
OK,126,74,985,126,2014-10-01T07:00:00,1,28100455,209986
OK,136,69,985,136,2014-10-01T07:10:00,1,28101275,209986
OK,139,67,985,139,2014-10-01T07:15:00,4,28101724,209986
OK,139,67,985,139,2014-10-01T07:20:00,4,28102160,209986
OK,104,90,985,104,2014-10-01T07:25:00,1,28102609,209986
OK,104,90,985,104,2014-10-01T07:30:00,0,28103037,209986
OK,104,90,985,104,2014-10-01T07:35:00,0,28103483,209986
OK,104,90,985,104,2014-10-01T07:40:00,0,28103928,209986
OK,104,90,985,104,2014-10-01T07:45:00,0,28104373,209986
OK,133,70,985,133,2014-10-01T07:50:00,1,28104814,209986
OK,133,70,985,133,2014-10-01T07:55:00,3,28105259,209986
OK,132,71,985,132,2014-10-01T08:00:00,3,28105699,209986
OK,132,71,985,132,2014-10-01T08:05:00,2,28106148,209986
OK,128,73,985,128,2014-10-01T08:10:00,4,28106585,209986
OK,125,75,985,125,2014-10-01T08:15:00,3,28106991,209986
OK,143,66,985,143,2014-10-01T08:20:00,2,28107423,209986
OK,120,78,985,120,2014-10-01T08:25:00,2,28107872,209986
OK,112,84,985,112,2014-10-01T08:30:00,1,28108311,209986
OK,111,85,985,111,2014-10-01T08:35:00,1,28108760,209986
OK,111,85,985,111,2014-10-01T08:40:00,0,28109188,209986
OK,111,85,985,111,2014-10-01T08:45:00,0,28109637,209986
OK,111,85,985,111,2014-10-01T08:50:00,0,28109980,209986
OK,111,85,985,111,2014-10-01T08:55:00,0,28110429,209986
OK,111,85,985,111,2014-10-01T09:00:00,0,28110852,209986
OK,125,75,985,125,2014-10-01T09:05:00,3,28111301,209986
OK,126,74,985,126,2014-10-01T09:10:00,4,28111730,209986
OK,163,57,985,163,2014-10-01T09:15:00,1,28112179,209986
OK,136,69,985,136,2014-10-01T09:20:00,2,28112520,209986
OK,110,85,985,110,2014-10-01T09:25:00,0,28112969,209986
OK,120,78,985,120,2014-10-01T09:30:00,1,28113393,209986
OK,128,73,985,128,2014-10-01T09:35:00,2,28113842,209986
OK,134,70,985,134,2014-10-01T09:40:00,2,28114274,209986
OK,132,71,985,132,2014-10-01T09:45:00,1,28114723,209986
OK,132,71,985,132,2014-10-01T09:50:00,0,28115077,209986
OK,137,68,985,137,2014-10-01T10:00:00,1,28115938,209986
OK,125,75,985,125,2014-10-01T10:05:00,1,28116387,209986
OK,125,75,985,125,2014-10-01T10:10:00,1,28116795,209986
OK,125,75,985,125,2014-10-01T10:15:00,0,28117244,209986
OK,119,79,985,119,2014-10-01T10:20:00,1,28117669,209986
OK,119,79,985,119,2014-10-01T10:25:00,3,28118118,209986
OK,121,78,985,121,2014-10-01T10:30:00,2,28118563,209986
OK,125,75,985,125,2014-10-01T10:35:00,1,28119010,209986
OK,122,77,985,122,2014-10-01T10:40:00,3,28119454,209986
OK,122,77,985,122,2014-10-01T10:45:00,3,28119902,209986
OK,121,78,985,121,2014-10-01T10:50:00,0,28120350,209986
OK,121,78,985,121,2014-10-01T10:55:00,0,28120799,209986
OK,130,72,985,130,2014-10-01T11:00:00,1,28121182,209986
OK,156,60,985,156,2014-10-01T11:05:00,2,28121631,209986
OK,182,51,985,182,2014-10-01T11:10:00,1,28122069,209986
OK,182,51,985,182,2014-10-01T11:15:00,0,28122518,209986
OK,182,51,985,182,2014-10-01T11:20:00,0,28122959,209986
OK,101,93,985,101,2014-10-01T11:25:00,1,28123408,209986
OK,101,93,985,101,2014-10-01T11:30:00,1,28123840,209986
OK,101,93,985,101,2014-10-01T11:35:00,0,28124289,209986
OK,101,93,985,101,2014-10-01T11:40:00,0,28124691,209986
OK,101,93,985,101,2014-10-01T11:45:00,0,28125140,209986
OK,101,93,985,101,2014-10-01T11:50:00,0,28125569,209986
OK,125,75,985,125,2014-10-01T11:55:00,3,28126018,209986
OK,121,78,985,121,2014-10-01T12:00:00,2,28126370,209986
OK,127,74,985,127,2014-10-01T12:10:00,3,28127268,209986
OK,127,74,985,127,2014-10-01T12:15:00,3,28127717,209986
OK,117,80,985,117,2014-10-01T12:20:00,1,28128145,209986
OK,128,73,985,128,2014-10-01T12:25:00,3,28128594,209986
OK,128,73,985,128,2014-10-01T12:30:00,3,28129029,209986
OK,126,74,985,126,2014-10-01T12:35:00,1,28129478,209986
OK,126,74,985,126,2014-10-01T12:40:00,0,28129912,209986
OK,126,74,985,126,2014-10-01T12:45:00,0,28130361,209986
OK,116,81,985,116,2014-10-01T12:50:00,2,28130789,209986
OK,118,80,985,118,2014-10-01T12:55:00,4,28131238,209986
OK,150,62,985,150,2014-10-01T13:00:00,3,28131675,209986
OK,129,73,985,129,2014-10-01T13:05:00,4,28132124,209986
OK,127,74,985,127,2014-10-01T13:10:00,4,28132562,209986
OK,119,79,985,119,2014-10-01T13:15:00,0,28133009,209986
OK,146,64,985,146,2014-10-01T13:20:00,1,28133447,209986
OK,132,71,985,132,2014-10-01T13:25:00,1,28133896,209986
OK,130,72,985,130,2014-10-01T13:30:00,2,28134335,209986
OK,125,75,985,125,2014-10-01T13:35:00,4,28134784,209986
OK,131,72,985,131,2014-10-01T13:40:00,4,28135203,209986
OK,122,77,985,122,2014-10-01T13:45:00,5,28135652,209986
OK,129,73,985,129,2014-10-01T13:50:00,4,28136089,209986
OK,134,70,985,134,2014-10-01T13:55:00,5,28136538,209986
OK,129,73,985,129,2014-10-01T14:00:00,3,28136978,209986
OK,135,69,985,135,2014-10-01T14:05:00,1,28137427,209986
OK,141,66,985,141,2014-10-01T14:10:00,6,28137861,209986
OK,133,70,985,133,2014-10-01T14:15:00,8,28138310,209986
OK,128,73,985,128,2014-10-01T14:20:00,6,28138738,209986
OK,123,76,985,123,2014-10-01T14:25:00,4,28139187,209986
OK,125,75,985,125,2014-10-01T14:30:00,9,28139598,209986
OK,121,78,985,121,2014-10-01T14:35:00,7,28140047,209986
OK,118,80,985,118,2014-10-01T14:40:00,4,28140489,209986
OK,123,76,985,123,2014-10-01T14:45:00,4,28140938,209986
OK,131,72,985,131,2014-10-01T14:50:00,4,28141364,209986
OK,132,71,985,132,2014-10-01T14:55:00,3,28141813,209986
OK,124,76,985,124,2014-10-01T15:00:00,4,28142241,209986
OK,125,75,985,125,2014-10-01T15:05:00,3,28142690,209986
OK,139,67,985,139,2014-10-01T15:10:00,1,28143117,209986
OK,119,79,985,119,2014-10-01T15:15:00,0,28143566,209986
OK,120,78,985,120,2014-10-01T15:20:00,6,28144014,209986
OK,118,80,985,118,2014-10-01T15:25:00,4,28144463,209986
OK,133,70,985,133,2014-10-01T15:30:00,1,28144884,209986
OK,120,78,985,120,2014-10-01T15:35:00,5,28145298,209986
OK,119,79,985,119,2014-10-01T15:40:00,6,28145747,209986
OK,124,76,985,124,2014-10-01T15:45:00,2,28146196,209986
OK,141,66,985,141,2014-10-01T15:50:00,2,28146645,209986
OK,140,67,985,140,2014-10-01T15:55:00,2,28147053,209986
OK,121,78,985,121,2014-10-01T16:00:00,2,28147497,209986
OK,115,82,985,115,2014-10-01T16:05:00,2,28147946,209986
OK,119,79,985,119,2014-10-01T16:10:00,1,28148347,209986
OK,129,73,985,129,2014-10-01T16:20:00,1,28149235,209986
OK,122,77,985,122,2014-10-01T16:25:00,4,28149684,209986
OK,121,78,985,121,2014-10-01T16:30:00,5,28150110,209986
OK,115,82,985,115,2014-10-01T16:35:00,1,28150559,209986
OK,115,82,985,115,2014-10-01T16:40:00,0,28150977,209986
OK,100,94,985,100,2014-10-01T16:45:00,4,28151426,209986
OK,101,93,985,101,2014-10-01T16:50:00,3,28151875,209986
OK,125,75,985,125,2014-10-01T17:00:00,0,28152324,209986
OK,125,75,985,125,2014-10-01T17:05:00,0,28152770,209986
OK,125,75,985,125,2014-10-01T17:10:00,0,28153217,209986
OK,82,115,985,82,2014-10-01T17:15:00,1,28153666,209986
OK,82,115,985,82,2014-10-01T17:20:00,1,28154076,209986
OK,82,115,985,82,2014-10-01T17:25:00,0,28154525,209986
OK,82,115,985,82,2014-10-01T17:30:00,0,28154967,209986
OK,82,115,985,82,2014-10-01T17:35:00,0,28155415,209986
OK,124,76,985,124,2014-10-01T17:40:00,3,28155833,209986
OK,114,82,985,114,2014-10-01T17:45:00,6,28156282,209986
OK,114,82,985,114,2014-10-01T17:50:00,2,28156730,209986
OK,114,82,985,114,2014-10-01T17:55:00,1,28157169,209986
OK,114,82,985,114,2014-10-01T18:00:00,1,28157599,209986
OK,114,82,985,114,2014-10-01T18:05:00,0,28158047,209986
OK,114,82,985,114,2014-10-01T18:10:00,0,28158491,209986
OK,114,82,985,114,2014-10-01T18:15:00,0,28158937,209986
OK,114,82,985,114,2014-10-01T18:20:00,0,28159383,209986
OK,116,81,985,116,2014-10-01T18:25:00,1,28159718,209986
OK,116,81,985,116,2014-10-01T18:30:00,1,28160167,209986
OK,116,81,985,116,2014-10-01T18:35:00,0,28160616,209986
OK,121,78,985,121,2014-10-01T18:40:00,1,28161054,209986
OK,121,78,985,121,2014-10-01T18:45:00,1,28161503,209986
OK,121,78,985,121,2014-10-01T18:50:00,0,28161920,209986
OK,121,78,985,121,2014-10-01T18:55:00,0,28162369,209986
OK,121,78,985,121,2014-10-01T19:00:00,0,28162763,209986
OK,121,78,985,121,2014-10-01T19:05:00,0,28163202,209986
OK,116,81,985,116,2014-10-01T19:10:00,2,28163650,209986
OK,122,77,985,122,2014-10-01T19:15:00,1,28164099,209986
OK,122,77,985,122,2014-10-01T19:20:00,0,28164530,209986
OK,122,77,985,122,2014-10-01T19:25:00,0,28164979,209986
OK,122,77,985,122,2014-10-01T19:30:00,0,28165404,209986
OK,122,77,985,122,2014-10-01T19:35:00,1,28165852,209986
OK,122,77,985,122,2014-10-01T19:40:00,1,28166293,209986
OK,126,74,985,126,2014-10-01T19:45:00,1,28166655,209986
OK,120,78,985,120,2014-10-01T19:50:00,1,28167104,209986
OK,120,78,985,120,2014-10-01T19:55:00,1,28167533,209986
OK,120,78,985,120,2014-10-01T20:00:00,0,28167966,209986
OK,146,64,985,146,2014-10-01T20:05:00,1,28168415,209986
OK,146,64,985,146,2014-10-01T20:10:00,0,28168860,209986
OK,146,64,985,146,2014-10-01T20:15:00,0,28169309,209986
OK,146,64,985,146,2014-10-01T20:20:00,0,28169757,209986
OK,146,64,985,146,2014-10-01T20:25:00,0,28170183,209986
OK,146,64,985,146,2014-10-01T20:30:00,0,28170628,209986
OK,146,64,985,146,2014-10-01T20:35:00,0,28171076,209986
OK,146,64,985,146,2014-10-01T20:40:00,0,28171513,209986
OK,146,64,985,146,2014-10-01T20:45:00,0,28171959,209986
OK,146,64,985,146,2014-10-01T20:50:00,0,28172407,209986
OK,146,64,985,146,2014-10-01T20:55:00,0,28172853,209986
OK,146,64,985,146,2014-10-01T21:00:00,0,28173299,209986
OK,146,64,985,146,2014-10-01T21:05:00,0,28173748,209986
OK,146,64,985,146,2014-10-01T21:10:00,0,28174189,209986
OK,117,80,985,117,2014-10-01T21:15:00,1,28174638,209986
OK,117,80,985,117,2014-10-01T21:20:00,0,28175064,209986
OK,117,80,985,117,2014-10-01T21:25:00,0,28175460,209986
OK,117,80,985,117,2014-10-01T21:30:00,0,28175909,209986
OK,117,80,985,117,2014-10-01T21:35:00,0,28176358,209986
OK,117,80,985,117,2014-10-01T21:40:00,0,28176807,209986
OK,117,80,985,117,2014-10-01T21:45:00,0,28177163,209986
OK,117,80,985,117,2014-10-01T21:50:00,0,28177603,209986
OK,117,80,985,117,2014-10-01T21:55:00,0,28178049,209986
OK,117,80,985,117,2014-10-01T22:00:00,0,28178498,209986
OK,117,80,985,117,2014-10-01T22:05:00,0,28178945,209986
OK,117,80,985,117,2014-10-01T22:10:00,0,28179379,209986
OK,117,80,985,117,2014-10-01T22:15:00,0,28179822,209986
OK,117,80,985,117,2014-10-01T22:20:00,0,28180269,209986
OK,117,80,985,117,2014-10-01T22:25:00,0,28180667,209986
OK,117,80,985,117,2014-10-01T22:30:00,0,28181116,209986
OK,117,80,985,117,2014-10-01T22:35:00,0,28181540,209986
OK,117,80,985,117,2014-10-01T22:40:00,0,28181988,209986
OK,117,80,985,117,2014-10-01T22:45:00,0,28182435,209986
OK,117,80,985,117,2014-10-01T22:50:00,0,28182884,209986
OK,117,80,985,117,2014-10-01T22:55:00,0,28183301,209986
OK,117,80,985,117,2014-10-01T23:00:00,0,28183734,209986
OK,117,80,985,117,2014-10-01T23:05:00,0,28184179,209986
OK,117,80,985,117,2014-10-01T23:10:00,0,28184628,209986
OK,117,80,985,117,2014-10-01T23:15:00,0,28185063,209986
OK,117,80,985,117,2014-10-01T23:20:00,0,28185511,209986
OK,117,80,985,117,2014-10-01T23:25:00,0,28185942,209986
OK,117,80,985,117,2014-10-01T23:30:00,0,28186334,209986
OK,117,80,985,117,2014-10-01T23:40:00,0,28187181,209986
OK,117,80,985,117,2014-10-01T23:55:00,0,28188513,209986
OK,117,80,985,117,2014-10-02T00:05:00,0,28189398,209986
OK,117,80,985,117,2014-10-02T00:10:00,0,28189820,209986
OK,117,80,985,117,2014-10-02T00:15:00,0,28190269,209986
OK,117,80,985,117,2014-10-02T00:20:00,0,28190622,209986
OK,117,80,985,117,2014-10-02T00:30:00,0,28191520,209986
OK,117,80,985,117,2014-10-02T00:35:00,0,28191826,209986
OK,117,80,985,117,2014-10-02T00:45:00,0,28192708,209986
OK,117,80,985,117,2014-10-02T00:50:00,0,28193152,209986
OK,117,80,985,117,2014-10-02T00:55:00,0,28193519,209986
OK,117,80,985,117,2014-10-02T01:05:00,0,28194417,209986
OK,117,80,985,117,2014-10-02T01:10:00,0,28194866,209986
OK,117,80,985,117,2014-10-02T01:15:00,0,28195102,209986
OK,117,80,985,117,2014-10-02T01:25:00,0,28196000,209986
OK,117,80,985,117,2014-10-02T01:30:00,0,28196285,209986
OK,117,80,985,117,2014-10-02T01:35:00,0,28196733,209986
OK,117,80,985,117,2014-10-02T01:40:00,0,28197156,209986
OK,117,80,985,117,2014-10-02T01:45:00,0,28197605,209986
OK,117,80,985,117,2014-10-02T01:50:00,0,28198053,209986
OK,117,80,985,117,2014-10-02T01:55:00,0,28198501,209986
OK,117,80,985,117,2014-10-02T02:00:00,0,28198950,209986
OK,117,80,985,117,2014-10-02T02:05:00,0,28199322,209986
OK,117,80,985,117,2014-10-02T02:10:00,0,28199764,209986
OK,117,80,985,117,2014-10-02T02:15:00,0,28200206,209986
OK,117,80,985,117,2014-10-02T02:20:00,0,28200649,209986
OK,117,80,985,117,2014-10-02T02:25:00,0,28201098,209986
OK,117,80,985,117,2014-10-02T02:30:00,0,28201529,209986
OK,117,80,985,117,2014-10-02T02:45:00,0,28202427,209986
OK,117,80,985,117,2014-10-02T02:50:00,0,28202869,209986
OK,117,80,985,117,2014-10-02T02:55:00,0,28203317,209986
OK,117,80,985,117,2014-10-02T03:00:00,0,28203752,209986
OK,117,80,985,117,2014-10-02T03:10:00,0,28204201,209986
OK,117,80,985,117,2014-10-02T03:25:00,0,28204650,209986
OK,117,80,985,117,2014-10-02T03:30:00,0,28205099,209986
OK,117,80,985,117,2014-10-02T03:35:00,0,28205527,209986
OK,117,80,985,117,2014-10-02T03:40:00,0,28205974,209986
OK,117,80,985,117,2014-10-02T03:45:00,0,28206357,209986
OK,117,80,985,117,2014-10-02T03:55:00,0,28207255,209986
OK,117,80,985,117,2014-10-02T04:00:00,0,28207675,209986
OK,117,80,985,117,2014-10-02T04:05:00,0,28208123,209986
OK,117,80,985,117,2014-10-02T04:10:00,0,28208550,209986
OK,117,80,985,117,2014-10-02T04:15:00,0,28208999,209986
OK,117,80,985,117,2014-10-02T04:20:00,0,28209437,209986
OK,117,80,985,117,2014-10-02T04:25:00,0,28209886,209986
OK,131,72,985,131,2014-10-02T04:30:00,2,28210309,209986
OK,126,74,985,126,2014-10-02T04:35:00,0,28210758,209986
OK,126,74,985,126,2014-10-02T04:40:00,0,28211183,209986
OK,126,74,985,126,2014-10-02T04:45:00,0,28211627,209986
OK,126,74,985,126,2014-10-02T04:50:00,0,28212005,209986
OK,126,74,985,126,2014-10-02T05:00:00,0,28212883,209986
OK,140,67,985,140,2014-10-02T05:05:00,0,28213332,209986
OK,140,67,985,140,2014-10-02T05:10:00,0,28213770,209986
OK,137,68,985,137,2014-10-02T05:15:00,0,28214219,209986
OK,137,68,985,137,2014-10-02T05:20:00,0,28214632,209986
OK,137,68,985,137,2014-10-02T05:25:00,0,28215081,209986
OK,137,68,985,137,2014-10-02T05:30:00,0,28215497,209986
OK,137,68,985,137,2014-10-02T05:35:00,0,28215946,209986
OK,163,57,985,163,2014-10-02T05:40:00,3,28216285,209986
OK,143,66,985,143,2014-10-02T05:45:00,1,28216725,209986
OK,143,66,985,143,2014-10-02T05:50:00,0,28217172,209986
OK,128,73,985,128,2014-10-02T05:55:00,1,28217621,209986
OK,128,73,985,128,2014-10-02T06:00:00,0,28218060,209986
OK,186,50,985,186,2014-10-02T06:05:00,1,28218509,209986
OK,186,50,985,186,2014-10-02T06:10:00,1,28218929,209986
OK,130,72,985,130,2014-10-02T06:15:00,2,28219378,209986
OK,110,85,985,110,2014-10-02T06:20:00,1,28219751,209986
OK,134,70,985,134,2014-10-02T06:30:00,4,28220634,209986
OK,134,70,985,134,2014-10-02T06:35:00,8,28221083,209986
OK,137,68,985,137,2014-10-02T06:40:00,3,28221464,209986
OK,148,63,985,148,2014-10-02T06:45:00,0,28221750,209986
OK,115,82,985,115,2014-10-02T07:00:00,1,28222344,209986
OK,115,82,985,115,2014-10-02T07:05:00,1,28222793,209986
OK,144,65,985,144,2014-10-02T07:10:00,1,28223224,209986
OK,144,65,985,144,2014-10-02T07:15:00,1,28223659,209986
OK,144,65,985,144,2014-10-02T07:20:00,0,28224107,209986
OK,123,76,985,123,2014-10-02T07:25:00,1,28224462,209986
OK,123,76,985,123,2014-10-02T07:30:00,1,28224911,209986
OK,129,73,985,129,2014-10-02T07:35:00,1,28225360,209986
OK,129,73,985,129,2014-10-02T07:40:00,0,28225682,209986
OK,142,66,985,142,2014-10-02T07:50:00,3,28226572,209986
OK,159,59,985,159,2014-10-02T07:55:00,4,28227021,209986
OK,172,54,985,172,2014-10-02T08:00:00,2,28227436,209986
OK,172,54,985,172,2014-10-02T08:05:00,0,28227885,209986
OK,172,54,985,172,2014-10-02T08:10:00,0,28228244,209986
OK,132,71,985,132,2014-10-02T08:20:00,0,28229103,209986
OK,132,71,985,132,2014-10-02T08:25:00,0,28229552,209986
OK,132,71,985,132,2014-10-02T08:30:00,0,28229902,209986
OK,119,79,985,119,2014-10-02T08:35:00,3,28230351,209986
OK,125,75,985,125,2014-10-02T08:40:00,2,28230717,209986
OK,109,86,985,109,2014-10-02T08:45:00,0,28231166,209986
OK,138,68,985,138,2014-10-02T08:50:00,1,28231589,209986
OK,138,68,985,138,2014-10-02T08:55:00,0,28232038,209986
OK,139,67,985,139,2014-10-02T09:00:00,2,28232380,209986
OK,120,78,985,120,2014-10-02T09:10:00,0,28232829,209986
OK,120,78,985,120,2014-10-02T09:15:00,0,28233278,209986
OK,120,78,985,120,2014-10-02T09:20:00,0,28233702,209986
OK,160,59,985,160,2014-10-02T09:25:00,0,28234151,209986
OK,160,59,985,160,2014-10-02T09:30:00,0,28234484,209986
OK,118,80,985,118,2014-10-02T09:40:00,0,28235360,209986
OK,118,80,985,118,2014-10-02T09:45:00,0,28235809,209986
OK,118,80,985,118,2014-10-02T09:50:00,0,28236252,209986
OK,118,80,985,118,2014-10-02T09:55:00,0,28236699,209986
OK,118,80,985,118,2014-10-02T10:00:00,0,28237102,209986
OK,118,80,985,118,2014-10-02T10:05:00,0,28237550,209986
OK,118,80,985,118,2014-10-02T10:10:00,0,28237998,209986
OK,109,86,985,109,2014-10-02T10:15:00,1,28238445,209986
OK,132,71,985,132,2014-10-02T10:20:00,2,28238886,209986
OK,155,60,985,155,2014-10-02T10:25:00,0,28239335,209986
OK,155,60,985,155,2014-10-02T10:30:00,0,28239765,209986
OK,135,69,985,135,2014-10-02T10:35:00,2,28240214,209986
OK,140,67,985,140,2014-10-02T10:40:00,1,28240658,209986
OK,131,72,985,131,2014-10-02T10:45:00,1,28241107,209986
OK,131,72,985,131,2014-10-02T10:50:00,0,28241539,209986
OK,147,64,985,147,2014-10-02T10:55:00,4,28241987,209986
OK,148,63,985,148,2014-10-02T11:00:00,3,28242383,209986
OK,147,64,985,147,2014-10-02T11:05:00,0,28242832,209986
OK,116,81,985,116,2014-10-02T11:10:00,1,28243281,209986
OK,116,81,985,116,2014-10-02T11:15:00,1,28243607,209986
OK,135,69,985,135,2014-10-02T11:20:00,2,28244044,209986
OK,129,73,985,129,2014-10-02T11:25:00,0,28244473,209986
OK,129,73,985,129,2014-10-02T11:30:00,0,28244922,209986
OK,115,82,985,115,2014-10-02T11:35:00,1,28245371,209986
OK,115,82,985,115,2014-10-02T11:40:00,1,28245777,209986
OK,115,82,985,115,2014-10-02T11:45:00,0,28246226,209986
OK,115,82,985,115,2014-10-02T11:50:00,0,28246663,209986
OK,115,82,985,115,2014-10-02T11:55:00,0,28247112,209986
OK,115,82,985,115,2014-10-02T12:00:00,0,28247558,209986
OK,115,82,985,115,2014-10-02T12:05:00,0,28247988,209986
OK,115,82,985,115,2014-10-02T12:10:00,0,28248437,209986
OK,120,78,985,120,2014-10-02T12:15:00,1,28248884,209986
OK,120,78,985,120,2014-10-02T12:20:00,1,28249312,209986
OK,148,63,985,148,2014-10-02T12:25:00,1,28249756,209986
OK,148,63,985,148,2014-10-02T12:30:00,1,28250175,209986
OK,122,77,985,122,2014-10-02T12:35:00,3,28250573,209986
OK,126,74,985,126,2014-10-02T13:20:00,3,28251898,209986
OK,135,69,985,135,2014-10-02T13:30:00,7,28252482,209986
OK,135,69,985,135,2014-10-02T13:35:00,3,28252924,209986
OK,112,84,985,112,2014-10-02T13:40:00,0,28253341,209986
OK,130,72,985,130,2014-10-02T13:50:00,1,28254195,209986
OK,134,70,985,134,2014-10-02T13:55:00,6,28254516,209986
OK,127,74,985,127,2014-10-02T14:10:00,3,28255093,209986
OK,120,78,985,120,2014-10-02T14:15:00,3,28255542,209986
OK,120,78,985,120,2014-10-02T14:20:00,1,28255970,209986
OK,120,78,985,120,2014-10-02T14:25:00,0,28256419,209986
OK,122,77,985,122,2014-10-02T14:30:00,4,28256847,209986
OK,124,76,985,124,2014-10-02T14:35:00,4,28257296,209986
OK,149,63,985,149,2014-10-02T14:40:00,1,28257737,209986
OK,149,63,985,149,2014-10-02T14:45:00,0,28258185,209986
OK,138,68,985,138,2014-10-02T14:50:00,1,28258618,209986
OK,138,68,985,138,2014-10-02T14:55:00,1,28259064,209986
OK,125,75,985,125,2014-10-02T15:00:00,2,28259513,209986
OK,131,72,985,131,2014-10-02T15:05:00,2,28259960,209986
OK,122,77,985,122,2014-10-02T15:10:00,4,28260393,209986
OK,122,77,985,122,2014-10-02T15:15:00,4,28260842,209986
OK,139,67,985,139,2014-10-02T15:20:00,1,28261282,209986
OK,100,94,985,100,2014-10-02T15:25:00,1,28261664,209986
OK,100,94,985,100,2014-10-02T15:30:00,0,28262094,209986
OK,119,79,985,119,2014-10-02T15:40:00,2,28262987,209986
OK,124,76,985,124,2014-10-02T15:45:00,1,28263425,209986
OK,124,76,985,124,2014-10-02T15:50:00,0,28263866,209986
OK,124,76,985,124,2014-10-02T15:55:00,0,28264268,209986
OK,125,75,985,125,2014-10-02T16:00:00,4,28264717,209986